Weather History for Juliana Airport, St. Martin

Change the Weather History Date:

Wednesday, November 3, 2010

  Actual Average Record
Temperature  
Mean Temperature 81 °F -  
Max Temperature 86 °F 84 °F 87 °F (1996)
Min Temperature 76 °F 74 °F 73 °F (2000)
Cooling Degree Days 16    
Growing Degree Days 31 (Base 50)    
Moisture  
Dew Point 73 °F    
Average Humidity 73    
Maximum Humidity 84    
Minimum Humidity 60    
Precipitation  
Precipitation 0.01 in 0.16 in - ()
Sea Level Pressure  
Sea Level Pressure 29.85 in    
Wind  
Wind Speed 8 mph ()    
Max Wind Speed 13 mph    
Max Gust Speed 23 mph    
Visibility 7.7 miles    
Events Rain    
Averages and records for this station are not official NWS values.
T = Trace of Precipitation, MM = Missing Value Source: Averaged Metar Reports

Daily Weather History Graph

Daily Weather History Graph

Search for Another Location

Airport:

Trip Planner

Search our weather history database for the weather conditions in past years. The results will help you decide how hot, cold, wet, or windy it might be!

Date:

Astronomy

Nov. 03, 2010 Rise Set
Actual Time 6:12 AM AST 5:39 PM AST
Civil Twilight 5:49 AM AST 6:01 PM AST
Nautical Twilight 5:24 AM AST 6:27 PM AST
Astronomical Twilight 4:58 AM AST 6:53 PM AST
Moon 3:26 AM AST (11/3) 3:32 PM AST (11/3)
Length of Visible Light 12h 11m
Length of Day
11h 26m
Waning Crescent, 9% of the Moon is Illuminated
Nov 3
Waning Crescent
Nov 6
New
Nov 13
First Quarter
Nov 21
Full
Nov 28
Last Quarter

Hourly Weather History & Observations

Time (AST) Temp. Heat Index Dew Point Humidity Pressure Visibility Wind Dir Wind Speed Gust Speed Precip Events Conditions
12:00 AM 80.6 °F 86.2 °F 75.2 °F 84% 29.89 in 6.2 mi East 9.2 mph - N/A   Scattered Clouds
1:00 AM 80.6 °F 86.2 °F 75.2 °F 84% 29.86 in 6.2 mi East 9.2 mph - N/A   Scattered Clouds
2:00 AM 80 °F - 71 °F 69% 29.86 in 12 mi SE 5.8 mph - -   Partly Cloudy
2:00 AM 80.6 °F 83.9 °F 69.8 °F 70% 29.83 in 6.2 mi Variable 3.5 mph - N/A   Scattered Clouds
4:00 AM 80.6 °F 86.2 °F 75.2 °F 84% 29.83 in 6.2 mi East 6.9 mph - N/A   Scattered Clouds
5:00 AM 80 °F - 72 °F 71%  in 12 mi East 8.1 mph - -  
5:00 AM 78.8 °F - 71.6 °F 78% 29.83 in 6.2 mi East 8.1 mph - N/A   Scattered Clouds
6:00 AM 80.6 °F 85.4 °F 73.4 °F 79% 29.86 in 6.2 mi East 9.2 mph - N/A   Scattered Clouds
7:00 AM 80.6 °F 85.4 °F 73.4 °F 79% 29.86 in 6.2 mi ESE 6.9 mph - N/A   Scattered Clouds
8:00 AM 82 °F - 74 °F 72% 29.90 in 12 mi East 8.1 mph - - Rain Light Rain Showers
8:00 AM 82.4 °F 89.5 °F 75.2 °F 79% 29.89 in 6.2 mi East 8.1 mph - N/A   Partly Cloudy
9:00 AM 84.2 °F 90.9 °F 73.4 °F 70% 29.89 in 6.2 mi East 10.4 mph - N/A   Partly Cloudy
10:00 AM 84.2 °F 90.9 °F 73.4 °F 70% 29.89 in 6.2 mi East 12.7 mph - N/A   Partly Cloudy
11:00 AM 85 °F - 73 °F 60% 29.89 in 12 mi East 11.5 mph - -   Scattered Clouds
11:00 AM 84.2 °F 90.9 °F 73.4 °F 70% 29.89 in 6.2 mi East 11.5 mph - N/A   Partly Cloudy
12:00 PM 86.0 °F 93.4 °F 73.4 °F 66% 29.86 in 6.2 mi East 10.4 mph - N/A   Partly Cloudy
1:00 PM 86.0 °F 91.8 °F 71.6 °F 62% 29.83 in 6.2 mi East 6.9 mph - N/A   Partly Cloudy
2:00 PM 84 °F - 73 °F 62% 29.82 in 12 mi East 11.5 mph - -   Partly Cloudy
2:00 PM 84.2 °F 90.9 °F 73.4 °F 70% 29.80 in 6.2 mi East 11.5 mph - N/A   Scattered Clouds
3:00 PM 84.2 °F 90.9 °F 73.4 °F 70% 29.80 in 6.2 mi East 10.4 mph 23.0 mph N/A   Scattered Clouds
4:00 PM 84.2 °F 90.9 °F 73.4 °F 70% 29.80 in 6.2 mi ESE 10.4 mph - N/A   Partly Cloudy
5:00 PM 83 °F - 74 °F 66% 29.81 in 12 mi ESE 12.7 mph - -   Scattered Clouds
5:00 PM 82.4 °F 88.2 °F 73.4 °F 74% 29.80 in 6.2 mi ESE 12.7 mph - N/A   Partly Cloudy
6:00 PM 82.4 °F 88.2 °F 73.4 °F 74% 29.80 in 6.2 mi East 12.7 mph - N/A   Partly Cloudy
7:00 PM 78.8 °F - 73.4 °F 83% 29.83 in 6.2 mi East 8.1 mph - N/A Rain Light Rain Showers
8:00 PM 81 °F - 74 °F 72% 29.86 in 12 mi East 9.2 mph - -  
8:00 PM 80.6 °F 85.4 °F 73.4 °F 79% 29.86 in 6.2 mi East 9.2 mph - N/A   Partly Cloudy
9:00 PM 80.6 °F 85.4 °F 73.4 °F 79% 29.86 in 6.2 mi East 11.5 mph - N/A   Scattered Clouds
10:00 PM 82.4 °F 89.5 °F 75.2 °F 79% 29.86 in 6.2 mi East 11.5 mph - N/A   Partly Cloudy
11:00 PM 82 °F - 73 °F 68% 29.87 in 12 mi ESE 9.2 mph - -   Scattered Clouds
11:00 PM 82.4 °F 88.2 °F 73.4 °F 74% 29.86 in 6.2 mi ESE 9.2 mph - N/A   Partly Cloudy